Retour au catalogue

STARLINK-35449

ActifCommunicationsVLEO
NORAD 66459·PAYLOAD·🇺🇸 United States

Lancé Nov 15, 2025 depuis Cape Canaveral Space Force Station

Loading…

Prochains Passages (prochaines 24 heures)

TLE

FraisSource: CelesTrak SupGP

Époque: Sep 15, 2026, 02:56 UTC

1 66459C 25262D   26258.12270833  .00027227  00000+0  98610-3 0  2580
2 66459  43.0007 306.4751 0001159 264.4152 193.6431 15.27567725    17

Suivez STARLINK-35449 en temps réel avec AllMySat

Download on the App Store